DELTA 1 DEB, 10716

Orbit data source: Space-Track

DELTA 1 DEB, 10716 is space debris in SSO originally from a launch on Thu, 29 Jul 1976 UTC launched from the Air Force Western Test Range (AFWTR). Debris objects in space refer to the collection of defunct objects orbiting the Earth. Examples of debris include non-operational satellites, rocket bodies, and fragments generated from explosions, collisions, or faulty payload assembly.

Loading next visibility...
Identifier
10716, 1976-077AM
Orbit
SSO
Country
Flag of USUS
Related business
Manufacturer
Unknown
Mission
Spacecraft
Bus & Motor
Unknown
Mass
Unknown
Launch date (UTC)
1976-07-29 (50 years ago)
Launch vehicle
Unknown
Launch site
Air Force Western Test Range (AFWTR)
Object type
Payload
Rocket body
Debris
Shape & HBR
Unknown shape, 0.1 m
Radar Cross Section
Small (<0.1 m²)

Expand to show TLE details & history
Last TLE update: 6 hours ago

TLE from 6 hours ago
0 DELTA 1 DEB
1 10716U 76077AM  26123.51843229  .00002525  00000-0  10630-1 0  9995
2 10716 102.7453 320.7731 0122430 181.9312 207.5489 12.82342666271071
Epoch: 2026-05-03T12:26Z
TLE epoch observation values (Epoch: 2026-05-03T12:26:32.549Z)
Latitude
28.10785°
Longitude
-94.18812°
Altitude
1,419.175 km
Speed
7.115 km/s
True Right ascension
20h 55m 28s
True Declination
27° 58' 38"
Sunlit
Object was in daylight at epoch
Visualization orbit readout
Latitude
Unknown
Longitude
Unknown
Altitude
Unknown
Speed
Unknown
Apparent Right ascension
Unknown
Apparent Declination
Unknown
Sunlit
N/A
Visualization observer readout
Local Sidereal Time
01:43:20
Azimuth
Unknown
Elevation
Unknown
Doppler factor
Unknown
Orbital elements
Apogee altitude
1,423.997 km
Perigee altitude
1,235.265 km
Semi-major axis
7,707.768 km
Eccentricity
0.01224
Inclination
102.7453°
RAAN
320.7731°
Arg. of periapsis
181.9312°
True anomaly
206.90873°
Mean anomaly
207.5489°
Eccentric anomaly
207.22795°
Mean motion
3.20738 °/min
Orbital period
112.24 mins
BSTAR
0.01063
Loading maneuver chart data...
Computing Atmospheric mass density...
Loading historical data...
Loading historical data...
Loading historical data...
Loading historical data...
Loading historical data...
Loading historical data...
Loading historical data...

Documentation

Showing up to 5 results
|